Flag for United Kingdom Weather past 2 weeks in Caversham, England, United Kingdom

Now
44 °F

Overcast.


Feels Like: 37 °F
Forecast: 38 / 50 °F
Wind: 13 mph from Southwest

Location: Benson

Current Time: Jan 28, 2015 at 4:36:29 AM

Latest Report: Jan 28, 2015 at 3:00 AM


Visibility: 19 mi

Pressure: 29.97 "Hg

Humidity: 88%

Dew point: 40 °F

Location of CavershamLocation

Historic Weather in Caversham — Graph

°F

Caversham temperature yesterday

Maximum temperature yesterday: 46 °F (at 4:00 PM)
Minimum temperature yesterday: 33 °F (at 1:00 AM)
Average temperature yesterday: 40 °F

Past Weeks' High & Low Weather Summary

 TemperatureHumidityPressure
High51 °F (Jan 15, 2:00 AM)100% (Jan 16, 7:00 PM)30.50 "Hg (Jan 16, 7:00 PM)
Low18 °F (Jan 23, 4:00 AM)60% (Jan 15, 2:00 PM)29.09 "Hg (Jan 15, 2:00 AM)
Average37 °F86%29.94 "Hg
* Reported Jan 13 3:00 AM — Jan 28 3:00 AM, Caversham, Weather by CustomWeather, © 2014

Note: Actual official high and low records may vary slightly from our data, if they occured in-between our weather recording intervals... More about our weather records

Advertising

Caversham weather history for previous 24 hours

 ConditionsComfort  
Time TempWeatherWind HumidityBarometerVisibility
3:00 AM
Jan 28
44 °FOvercast.13 mph88%29.97 "Hg19 mi
2:00 AM44 °FQuite cool.15 mph88%30.01 "Hg25 mi
1:00 AM43 °FQuite cool.12 mph90%30.04 "Hg25 mi
12:00 AM43 °FDrizzle. Overcast.12 mph89%30.11 "Hg12 mi
11:00 PM
Jan 27
43 °FOvercast.10 mph85%30.12 "Hg19 mi
10:00 PM43 °FOvercast.7 mph81%30.17 "Hg25 mi
9:00 PM44 °FOvercast.8 mph77%30.21 "Hg19 mi
8:00 PM44 °FOvercast.9 mph73%30.23 "Hg19 mi
7:00 PM44 °FOvercast.7 mph75%30.24 "Hg25 mi
6:00 PM44 °FOvercast.7 mph78%30.26 "Hg22 mi
5:00 PM44 °FOvercast.7 mph78%30.27 "Hg19 mi
4:00 PM46 °FOvercast.8 mph77%30.28 "Hg16 mi
12:00 PM44 °FOvercast.9 mph83%30.36 "Hg16 mi
11:00 AM44 °FOvercast.6 mph84%30.37 "Hg16 mi
10:00 AM42 °FOvercast.2 mph87%30.37 "Hg16 mi
9:00 AM38 °FOvercast.5 mph94%30.38 "Hg14 mi
8:00 AM37 °FOvercast.2 mph93%30.38 "Hg16 mi
7:00 AM36 °FOvercast.3 mph95%30.38 "Hg16 mi
6:00 AM35 °FOvercast.2 mph96%30.39 "Hg16 mi
5:00 AM35 °FOvercast.1 mph93%30.39 "Hg16 mi
4:00 AM34 °FOvercast.1 mph93%30.38 "Hg19 mi
Weather by CustomWeather, © 2014

See weather overviewHow to use our weather pages